Groton, CT

4:23 PM EDT on May 23, 2017 (GMT -0400)
Groton-New London

Weather History for KGON - March, 2013

Change the Weather History Date:

Monday, March 18, 2013

  Actual Average Record
Temperature  
Mean Temperature 28 °F -  
Max Temperature 35 °F 45 °F 73 °F (2011)
Min Temperature 21 °F 27 °F 6 °F (1967)
Degree Days  
Heating Degree Days 38    
Moisture  
Dew Point 15 °F    
Average Humidity 57    
Maximum Humidity 93    
Minimum Humidity 29    
Precipitation  
Precipitation 0.00 in - - ()
Sea Level Pressure  
Sea Level Pressure 30.32 in    
Wind  
Wind Speed 10 mph (ENE)    
Max Wind Speed 17 mph    
Max Gust Speed 28 mph    
Visibility 8 miles    
Events Snow    
Averages and records for this station are not official NWS values.
T = Trace of Precipitation, MM = Missing Value Source: NWS Daily Summary

Daily Weather History Graph

Daily Weather History Graph

Search for Another Location

Airport or City:

Trip Planner

Search our weather history database for the weather conditions in past years. The results will help you decide how hot, cold, wet, or windy it might be!

Date:

Astronomy

Mar. 18, 2013 Rise Set
Actual Time 6:54 AM EDT 6:58 PM EDT
Civil Twilight 6:26 AM EDT 7:25 PM EDT
Nautical Twilight 5:54 AM EDT 7:58 PM EDT
Astronomical Twilight 5:22 AM EDT 8:31 PM EDT
Moon 10:48 AM EDT (3/18) 12:58 AM EDT (3/18)
Length of Visible Light 12h 58m
Length of Day
12h 03m
Waxing Crescent, 40% of the Moon is Illuminated
Mar 18
Waxing Crescent
Mar 19
First Quarter
Mar 27
Full
Apr 3
Last Quarter
Apr 10
New

Hourly Weather History & Observations

Time (EDT) Temp. Windchill Dew Point Humidity Pressure Visibility Wind Dir Wind Speed Gust Speed Precip Events Conditions
12:56 AM 27.0 °F 20.5 °F 7.0 °F 43% 30.31 in 10.0 mi North 5.8 mph - N/A   Clear
1:56 AM 27.0 °F 18.7 °F 7.0 °F 43% 30.33 in 10.0 mi North 8.1 mph - N/A   Clear
2:56 AM 27.0 °F 16.7 °F 7.0 °F 43% 30.35 in 10.0 mi NNE 11.5 mph - N/A   Clear
3:56 AM 26.1 °F 16.2 °F 5.0 °F 41% 30.37 in 10.0 mi NNE 10.4 mph - N/A   Clear
4:56 AM 25.0 °F 15.5 °F 5.0 °F 43% 30.38 in 10.0 mi NE 9.2 mph - N/A   Clear
5:56 AM 21.9 °F 13.4 °F 3.9 °F 46% 30.41 in 10.0 mi NNE 6.9 mph - N/A   Clear
6:56 AM 21.9 °F 15.7 °F 3.9 °F 46% 30.43 in 10.0 mi NE 4.6 mph - N/A   Clear
7:56 AM 24.1 °F 15.2 °F 3.9 °F 42% 30.44 in 10.0 mi NE 8.1 mph - N/A   Clear
8:56 AM 26.1 °F 16.2 °F 1.0 °F 34% 30.44 in 10.0 mi NE 10.4 mph - N/A   Clear
9:56 AM 27.0 °F 18.7 °F 1.0 °F 33% 30.43 in 10.0 mi NE 8.1 mph - N/A   Clear
10:56 AM 30.0 °F 23.2 °F 1.0 °F 29% 30.42 in 10.0 mi NE 6.9 mph - N/A   Clear
11:56 AM 32.0 °F 24.2 °F 3.9 °F 31% 30.41 in 10.0 mi SSE 9.2 mph 16.1 mph N/A   Clear
12:56 PM 32.0 °F 23.6 °F 10.0 °F 40% 30.41 in 10.0 mi SE 10.4 mph - N/A   Clear
1:56 PM 33.1 °F 24.9 °F 14.0 °F 46% 30.40 in 10.0 mi SE 10.4 mph - N/A   Clear
2:56 PM 33.1 °F 23.4 °F 16.0 °F 50% 30.34 in 10.0 mi East 13.8 mph - N/A   Clear
3:56 PM 34.0 °F 25.0 °F 19.0 °F 54% 30.33 in 10.0 mi East 12.7 mph - N/A   Clear
4:56 PM 34.0 °F 25.0 °F 18.0 °F 52% 30.30 in 10.0 mi East 12.7 mph - N/A   Overcast
5:56 PM 34.0 °F 25.0 °F 19.0 °F 54% 30.29 in 10.0 mi East 12.7 mph - N/A   Overcast
6:56 PM 34.0 °F 24.6 °F 19.9 °F 56% 30.28 in 10.0 mi ESE 13.8 mph - N/A   Overcast
7:56 PM 34.0 °F 24.2 °F 23.0 °F 64% 30.26 in 10.0 mi ESE 15.0 mph 21.9 mph N/A   Overcast
8:56 PM 33.1 °F 22.2 °F 23.0 °F 66% 30.24 in 2.5 mi East 17.3 mph 25.3 mph 0.00 in Snow Light Snow
9:14 PM 32.0 °F 21.6 °F 24.8 °F 75% 30.24 in 1.5 mi East 15.0 mph 21.9 mph 0.00 in Snow Light Snow
9:40 PM 30.2 °F 20.2 °F 28.4 °F 93% 30.22 in 1.5 mi East 12.7 mph - 0.00 in Snow Light Snow
9:53 PM 30.2 °F 19.3 °F 28.4 °F 93% 30.22 in 1.5 mi East 15.0 mph - 0.00 in Snow Light Snow
9:56 PM 30.9 °F 20.2 °F 28.0 °F 89% 30.22 in 1.5 mi East 15.0 mph - 0.00 in Snow Light Snow
10:02 PM 30.2 °F 18.5 °F 28.4 °F 93% 30.21 in 3.0 mi East 17.3 mph - 0.00 in Snow Light Snow
10:09 PM 30.2 °F 19.3 °F 28.4 °F 93% 30.21 in 6.0 mi East 15.0 mph 27.6 mph 0.00 in Snow Light Snow
10:56 PM 32.0 °F 23.0 °F 27.0 °F 82% 30.18 in 5.0 mi ENE 11.5 mph - 0.00 in Snow Light Snow
11:56 PM 32.0 °F 21.2 °F 28.0 °F 85% 30.14 in 2.0 mi ENE 16.1 mph 25.3 mph 0.00 in Snow Light Snow